Time,TemperatureF,DewpointF,PressureIn,WindDirection,WindDirectionDegrees,WindSpeedMPH,WindSpeedGustMPH,Humidity,HourlyPrecipIn,Conditions,Clouds,dailyrainin,SoftwareType,DateUTC
2013-11-04 00:01:00,40.9,34.9,30.50,SE,136,15.0,16.0,79,0.00,,OVC030,0.00,VWS V13.01,2013-11-04 05:01:00,
2013-11-04 00:02:00,41.0,35.0,30.50,SE,133,15.0,16.0,79,0.00,,OVC030,0.00,VWS V13.01,2013-11-04 05:02:00,
2013-11-04 00:07:00,40.9,35.2,30.50,SE,130,12.0,16.0,80,0.00,,OVC030,0.00,VWS V13.01,2013-11-04 05:07:00,
2013-11-04 00:12:00,41.0,35.3,30.50,SE,135,12.0,16.0,80,0.00,,OVC030,0.00,VWS V13.01,2013-11-04 05:12:00,
2013-11-04 00:17:00,41.0,35.3,30.50,SE,130,15.0,16.0,80,0.00,,OVC030,0.00,VWS V13.01,2013-11-04 05:17:00,
2013-11-04 00:22:00,41.0,34.7,30.51,SE,135,14.0,16.0,78,0.00,,OVC030,0.00,VWS V13.01,2013-11-04 05:22:00,
2013-11-04 00:27:00,41.0,34.3,30.51,SE,136,14.0,17.0,77,0.00,,OVC030,0.00,VWS V13.01,2013-11-04 05:27:00,
2013-11-04 00:32:00,41.1,35.1,30.51,SE,138,11.0,16.0,79,0.00,,OVC030,0.00,VWS V13.01,2013-11-04 05:32:00,
2013-11-04 00:37:00,41.1,35.1,30.51,SE,126,16.0,16.0,79,0.00,,OVC030,0.00,VWS V13.01,2013-11-04 05:37:00,
2013-11-04 00:42:00,41.1,34.5,30.51,SE,139,13.0,17.0,77,0.00,,OVC030,0.00,VWS V13.01,2013-11-04 05:42:00,
2013-11-04 00:47:00,41.2,34.9,30.51,SE,127,13.0,16.0,78,0.00,,OVC030,0.00,VWS V13.01,2013-11-04 05:47:00,
2013-11-04 00:52:00,41.1,34.5,30.51,SE,131,15.0,17.0,77,0.00,,OVC030,0.00,VWS V13.01,2013-11-04 05:52:00,
2013-11-04 00:57:00,41.1,34.1,30.51,SE,140,10.0,17.0,76,0.00,,OVC030,0.00,VWS V13.01,2013-11-04 05:57:00,
2013-11-04 01:02:00,41.2,34.2,30.52,SE,131,14.0,17.0,76,0.00,,CLR,0.00,VWS V13.01,2013-11-04 06:02:00,
2013-11-04 01:07:00,41.3,34.7,30.52,SE,126,14.0,16.0,77,0.00,,CLR,0.00,VWS V13.01,2013-11-04 06:07:00,
2013-11-04 01:12:00,41.2,34.2,30.52,SE,140,14.0,17.0,76,0.00,,CLR,0.00,VWS V13.01,2013-11-04 06:12:00,
2013-11-04 01:17:00,41.3,34.7,30.52,SE,135,16.0,17.0,77,0.00,,CLR,0.00,VWS V13.01,2013-11-04 06:17:00,
2013-11-04 01:22:00,41.3,34.0,30.52,SE,133,14.0,18.0,75,0.00,,CLR,0.00,VWS V13.01,2013-11-04 06:22:00,
2013-11-04 01:27:00,41.3,34.7,30.52,SE,134,14.0,18.0,77,0.00,,CLR,0.00,VWS V13.01,2013-11-04 06:27:00,
2013-11-04 01:32:00,41.3,34.3,30.52,SE,127,12.0,18.0,76,0.00,,CLR,0.00,VWS V13.01,2013-11-04 06:32:00,
2013-11-04 01:37:00,41.3,34.3,30.52,SE,134,10.0,18.0,76,0.00,,CLR,0.00,VWS V13.01,2013-11-04 06:37:00,
2013-11-04 01:42:00,41.2,33.9,30.52,SE,136,16.0,18.0,75,0.00,,CLR,0.00,VWS V13.01,2013-11-04 06:42:00,
2013-11-04 01:47:00,41.1,34.1,30.51,SE,133,15.0,20.0,76,0.00,,CLR,0.00,VWS V13.01,2013-11-04 06:47:00,
2013-11-04 01:52:00,41.1,33.8,30.51,SE,126,15.0,20.0,75,0.00,,CLR,0.00,VWS V13.01,2013-11-04 06:52:00,
2013-11-04 01:57:00,41.1,34.5,30.51,SE,132,13.0,20.0,77,0.00,,CLR,0.00,VWS V13.01,2013-11-04 06:57:00,
2013-11-04 02:02:00,40.9,34.3,30.51,SE,141,15.0,19.0,77,0.00,,CLR,0.00,VWS V13.01,2013-11-04 07:02:00,
2013-11-04 02:07:00,40.9,34.3,30.52,SE,126,16.0,19.0,77,0.00,,CLR,0.00,VWS V13.01,2013-11-04 07:07:00,
2013-11-04 02:12:00,40.8,34.5,30.52,SE,132,13.0,19.0,78,0.00,,CLR,0.00,VWS V13.01,2013-11-04 07:12:00,
2013-11-04 02:17:00,40.8,34.5,30.52,SE,134,18.0,19.0,78,0.00,,CLR,0.00,VWS V13.01,2013-11-04 07:17:00,
2013-11-04 02:22:00,40.8,34.5,30.51,SE,135,18.0,19.0,78,0.00,,CLR,0.00,VWS V13.01,2013-11-04 07:22:00,
2013-11-04 02:27:00,40.7,33.7,30.51,SE,138,15.0,19.0,76,0.00,,CLR,0.00,VWS V13.01,2013-11-04 07:27:00,
2013-11-04 02:32:00,40.7,34.4,30.51,SE,138,17.0,20.0,78,0.00,,CLR,0.00,VWS V13.01,2013-11-04 07:32:00,
2013-11-04 02:37:00,40.6,34.0,30.51,ESE,121,15.0,19.0,77,0.00,,CLR,0.00,VWS V13.01,2013-11-04 07:37:00,
2013-11-04 02:42:00,40.6,34.6,30.51,SE,140,17.0,20.0,79,0.00,,CLR,0.00,VWS V13.01,2013-11-04 07:42:00,
2013-11-04 02:47:00,40.5,35.1,30.51,SE,135,18.0,20.0,81,0.00,,CLR,0.00,VWS V13.01,2013-11-04 07:47:00,
2013-11-04 02:52:00,40.3,34.0,30.50,SE,129,17.0,21.0,78,0.00,,CLR,0.00,VWS V13.01,2013-11-04 07:52:00,
2013-11-04 02:57:00,40.3,34.6,30.50,SE,130,18.0,20.0,80,0.00,,CLR,0.00,VWS V13.01,2013-11-04 07:57:00,
2013-11-04 03:02:00,40.1,33.8,30.50,SE,133,18.0,23.0,78,0.00,,CLR,0.00,VWS V13.01,2013-11-04 08:02:00,
2013-11-04 03:07:00,40.1,34.1,30.50,SE,128,18.0,22.0,79,0.00,,CLR,0.00,VWS V13.01,2013-11-04 08:07:00,
2013-11-04 03:12:00,40.1,34.1,30.50,ESE,121,15.0,22.0,79,0.00,,CLR,0.00,VWS V13.01,2013-11-04 08:12:00,
2013-11-04 03:17:00,40.2,33.6,30.51,SE,141,20.0,23.0,77,0.00,,CLR,0.00,VWS V13.01,2013-11-04 08:17:00,
2013-11-04 03:22:00,40.1,33.5,30.51,SE,124,16.0,22.0,77,0.00,,CLR,0.00,VWS V13.01,2013-11-04 08:22:00,
2013-11-04 03:27:00,40.2,34.5,30.51,SE,126,16.0,23.0,80,0.00,,CLR,0.00,VWS V13.01,2013-11-04 08:27:00,
2013-11-04 03:32:00,40.2,33.6,30.51,SE,133,18.0,21.0,77,0.00,,CLR,0.00,VWS V13.01,2013-11-04 08:32:00,
2013-11-04 03:37:00,40.3,34.3,30.50,SE,136,13.0,21.0,79,0.00,,CLR,0.00,VWS V13.01,2013-11-04 08:37:00,
2013-11-04 03:42:00,40.2,33.6,30.50,SE,139,18.0,22.0,77,0.00,,CLR,0.00,VWS V13.01,2013-11-04 08:42:00,
2013-11-04 03:47:00,40.3,34.3,30.50,SE,134,16.0,21.0,79,0.00,,CLR,0.00,VWS V13.01,2013-11-04 08:47:00,
2013-11-04 03:52:00,40.3,34.0,30.50,SE,134,17.0,22.0,78,0.00,,CLR,0.00,VWS V13.01,2013-11-04 08:52:00,
2013-11-04 03:57:00,40.4,34.4,30.50,SE,126,16.0,22.0,79,0.00,,CLR,0.00,VWS V13.01,2013-11-04 08:57:00,
2013-11-04 04:02:00,40.3,33.7,30.50,SE,140,17.0,21.0,77,0.00,,CLR,0.00,VWS V13.01,2013-11-04 09:02:00,
2013-11-04 04:07:00,40.3,33.7,30.50,SSE,153,18.0,22.0,77,0.00,,CLR,0.00,VWS V13.01,2013-11-04 09:07:00,
2013-11-04 04:12:00,40.2,33.9,30.50,SE,136,15.0,22.0,78,0.00,,CLR,0.00,VWS V13.01,2013-11-04 09:12:00,
2013-11-04 04:17:00,40.3,34.9,30.51,SE,146,18.0,22.0,81,0.00,,CLR,0.00,VWS V13.01,2013-11-04 09:17:00,
2013-11-04 04:22:00,40.1,35.1,30.51,SE,134,15.0,20.0,82,0.00,,CLR,0.00,VWS V13.01,2013-11-04 09:22:00,
2013-11-04 04:27:00,40.0,34.7,30.51,SE,144,18.0,20.0,81,0.00,,CLR,0.00,VWS V13.01,2013-11-04 09:27:00,
2013-11-04 04:32:00,40.0,35.0,30.51,SE,143,16.0,20.0,82,0.00,,CLR,0.00,VWS V13.01,2013-11-04 09:32:00,
2013-11-04 04:37:00,40.0,35.6,30.51,SSE,153,18.0,21.0,84,0.00,,CLR,0.00,VWS V13.01,2013-11-04 09:37:00,
2013-11-04 04:42:00,40.0,35.0,30.51,SSE,149,17.0,21.0,82,0.00,,CLR,0.00,VWS V13.01,2013-11-04 09:42:00,
2013-11-04 04:47:00,40.0,35.6,30.51,SE,144,15.0,20.0,84,0.00,,CLR,0.00,VWS V13.01,2013-11-04 09:47:00,
2013-11-04 04:52:00,40.0,35.3,30.51,SE,137,18.0,19.0,83,0.00,,CLR,0.00,VWS V13.01,2013-11-04 09:52:00,
2013-11-04 04:57:00,39.9,34.9,30.51,SE,138,13.0,19.0,82,0.00,,CLR,0.00,VWS V13.01,2013-11-04 09:57:00,
2013-11-04 05:02:00,39.9,34.9,30.51,SE,136,10.0,20.0,82,0.00,,CLR,0.00,VWS V13.01,2013-11-04 10:02:00,
2013-11-04 05:07:00,39.8,34.8,30.51,SE,135,18.0,20.0,82,0.00,,CLR,0.00,VWS V13.01,2013-11-04 10:07:00,
2013-11-04 05:13:00,39.8,34.1,30.52,SE,140,17.0,21.0,80,0.00,,CLR,0.00,VWS V13.01,2013-11-04 10:13:00,
2013-11-04 05:18:00,39.9,34.5,30.52,SE,140,17.0,20.0,81,0.00,,CLR,0.00,VWS V13.01,2013-11-04 10:18:00,
2013-11-04 05:23:00,40.0,34.0,30.52,SE,144,16.0,21.0,79,0.00,,CLR,0.00,VWS V13.01,2013-11-04 10:23:00,
2013-11-04 05:28:00,40.0,34.7,30.52,SE,139,16.0,19.0,81,0.00,,CLR,0.00,VWS V13.01,2013-11-04 10:28:00,
2013-11-04 05:33:00,40.0,33.7,30.53,SE,138,17.0,20.0,78,0.00,,CLR,0.00,VWS V13.01,2013-11-04 10:33:00,
2013-11-04 05:38:00,40.1,34.4,30.53,SE,130,14.0,21.0,80,0.00,,CLR,0.00,VWS V13.01,2013-11-04 10:38:00,
2013-11-04 05:43:00,40.2,33.9,30.52,ESE,123,14.0,21.0,78,0.00,,CLR,0.00,VWS V13.01,2013-11-04 10:43:00,
2013-11-04 05:48:00,40.2,33.9,30.52,South,172,14.0,19.0,78,0.00,,CLR,0.00,VWS V13.01,2013-11-04 10:48:00,
2013-11-04 05:53:00,40.4,33.8,30.52,SE,136,15.0,20.0,77,0.00,,CLR,0.00,VWS V13.01,2013-11-04 10:53:00,
2013-11-04 05:58:00,40.4,34.1,30.52,SSE,157,18.0,20.0,78,0.00,,CLR,0.00,VWS V13.01,2013-11-04 10:58:00,
2013-11-04 06:03:00,40.4,33.5,30.52,SE,140,18.0,20.0,76,0.00,,CLR,0.00,VWS V13.01,2013-11-04 11:03:00,
2013-11-04 06:08:00,40.5,33.9,30.52,SSE,154,16.0,21.0,77,0.00,,CLR,0.00,VWS V13.01,2013-11-04 11:08:00,
2013-11-04 06:13:00,40.5,33.5,30.52,SE,139,19.0,22.0,76,0.00,,CLR,0.00,VWS V13.01,2013-11-04 11:13:00,
2013-11-04 06:14:00,40.5,33.5,30.52,SSE,158,16.0,22.0,76,0.00,,CLR,0.00,VWS V13.01,2013-11-04 11:14:00,
2013-11-04 06:19:00,40.6,34.0,30.51,SSE,148,16.0,22.0,77,0.00,,CLR,0.00,VWS V13.01,2013-11-04 11:19:00,
2013-11-04 06:22:00,40.6,34.6,30.51,SE,132,16.0,22.0,79,0.00,,CLR,0.00,VWS V13.01,2013-11-04 11:22:00,
2013-11-04 06:27:00,40.6,34.3,30.52,SSE,156,14.0,23.0,78,0.00,,CLR,0.00,VWS V13.01,2013-11-04 11:27:00,
2013-11-04 06:32:00,40.7,34.7,30.52,SE,137,16.0,20.0,79,0.00,,CLR,0.00,VWS V13.01,2013-11-04 11:32:00,
2013-11-04 06:37:00,40.6,34.3,30.52,SE,132,17.0,21.0,78,0.00,,CLR,0.00,VWS V13.01,2013-11-04 11:37:00,
2013-11-04 06:42:00,40.6,34.3,30.51,SE,144,20.0,21.0,78,0.00,,CLR,0.00,VWS V13.01,2013-11-04 11:42:00,
2013-11-04 06:47:00,40.6,34.9,30.51,SE,136,17.0,21.0,80,0.00,,CLR,0.00,VWS V13.01,2013-11-04 11:47:00,
2013-11-04 06:52:00,40.7,35.3,30.51,SE,145,15.0,21.0,81,0.00,,CLR,0.00,VWS V13.01,2013-11-04 11:52:00,
2013-11-04 06:57:00,40.7,35.3,30.51,SSE,149,12.0,21.0,81,0.00,,CLR,0.00,VWS V13.01,2013-11-04 11:57:00,
2013-11-04 07:02:00,40.7,35.0,30.51,SSE,147,13.0,22.0,80,0.00,,CLR,0.00,VWS V13.01,2013-11-04 12:02:00,
2013-11-04 07:07:00,40.8,35.1,30.52,SSE,164,14.0,21.0,80,0.00,,CLR,0.00,VWS V13.01,2013-11-04 12:07:00,
2013-11-04 07:12:00,40.8,35.4,30.51,SSE,149,20.0,23.0,81,0.00,,CLR,0.00,VWS V13.01,2013-11-04 12:12:00,
2013-11-04 07:17:00,40.8,35.1,30.51,SE,146,19.0,21.0,80,0.00,,CLR,0.00,VWS V13.01,2013-11-04 12:17:00,
2013-11-04 07:22:00,40.9,36.5,30.51,SSE,153,14.0,21.0,84,0.00,,CLR,0.00,VWS V13.01,2013-11-04 12:22:00,
2013-11-04 07:27:00,40.8,35.4,30.51,SSE,153,19.0,22.0,81,0.00,,CLR,0.00,VWS V13.01,2013-11-04 12:27:00,
2013-11-04 07:32:00,40.8,36.3,30.51,SSE,148,13.0,21.0,84,0.00,,CLR,0.00,VWS V13.01,2013-11-04 12:32:00,
2013-11-04 07:37:00,40.9,36.1,30.51,SSE,163,16.0,21.0,83,0.00,,CLR,0.00,VWS V13.01,2013-11-04 12:37:00,
2013-11-04 07:42:00,40.8,36.3,30.51,SSE,163,15.0,22.0,84,0.00,,CLR,0.00,VWS V13.01,2013-11-04 12:42:00,
2013-11-04 07:47:00,40.7,36.0,30.50,SSE,157,20.0,22.0,83,0.00,,CLR,0.00,VWS V13.01,2013-11-04 12:47:00,
2013-11-04 07:52:00,40.8,36.7,30.50,SE,145,14.0,21.0,85,0.00,,CLR,0.00,VWS V13.01,2013-11-04 12:52:00,
2013-11-04 07:57:00,40.8,36.3,30.50,SE,141,20.0,24.0,84,0.00,,CLR,0.00,VWS V13.01,2013-11-04 12:57:00,
2013-11-04 08:02:00,40.9,36.5,30.50,SE,140,21.0,23.0,84,0.00,,CLR,0.00,VWS V13.01,2013-11-04 13:02:00,
2013-11-04 08:07:00,40.9,36.8,30.50,SSE,154,21.0,22.0,85,0.00,,CLR,0.00,VWS V13.01,2013-11-04 13:07:00,
2013-11-04 08:12:00,41.0,36.8,30.51,SSE,153,18.0,28.0,85,0.00,,CLR,0.00,VWS V13.01,2013-11-04 13:12:00,
2013-11-04 08:17:00,40.9,36.8,30.51,SSE,164,18.0,23.0,85,0.00,,CLR,0.00,VWS V13.01,2013-11-04 13:17:00,
2013-11-04 08:22:00,40.9,36.5,30.51,SSE,161,19.0,27.0,84,0.00,,CLR,0.00,VWS V13.01,2013-11-04 13:22:00,
2013-11-04 08:27:00,40.9,36.5,30.51,SE,144,17.0,24.0,84,0.00,,CLR,0.00,VWS V13.01,2013-11-04 13:27:00,
2013-11-04 08:32:00,40.8,36.3,30.51,SSE,154,18.0,26.0,84,0.00,,CLR,0.00,VWS V13.01,2013-11-04 13:32:00,
2013-11-04 08:37:00,40.9,37.0,30.51,SE,146,17.0,24.0,86,0.00,,CLR,0.00,VWS V13.01,2013-11-04 13:37:00,
2013-11-04 08:43:00,40.9,36.5,30.50,SE,144,23.0,27.0,84,0.00,,CLR,0.00,VWS V13.01,2013-11-04 13:43:00,
2013-11-04 08:48:00,41.0,36.5,30.50,SE,144,18.0,26.0,84,0.00,,CLR,0.00,VWS V13.01,2013-11-04 13:48:00,
2013-11-04 08:53:00,41.1,36.9,30.50,SE,134,22.0,26.0,85,0.00,,CLR,0.00,VWS V13.01,2013-11-04 13:53:00,
2013-11-04 08:58:00,41.1,36.6,30.50,SSE,148,23.0,28.0,84,0.00,,CLR,0.00,VWS V13.01,2013-11-04 13:58:00,
2013-11-04 09:03:00,41.2,36.7,30.50,SE,146,20.0,27.0,84,0.00,,CLR,0.00,VWS V13.01,2013-11-04 14:03:00,
2013-11-04 09:08:00,41.1,36.6,30.50,SE,144,13.0,25.0,84,0.00,,CLR,0.00,VWS V13.01,2013-11-04 14:08:00,
2013-11-04 09:13:00,41.1,36.6,30.50,SSE,150,22.0,27.0,84,0.00,,CLR,0.00,VWS V13.01,2013-11-04 14:13:00,
2013-11-04 09:18:00,41.1,36.0,30.50,SE,142,16.0,26.0,82,0.00,,CLR,0.00,VWS V13.01,2013-11-04 14:18:00,
2013-11-04 09:23:00,41.2,36.1,30.50,SE,145,21.0,25.0,82,0.00,,CLR,0.00,VWS V13.01,2013-11-04 14:23:00,
2013-11-04 09:28:00,41.0,35.6,30.50,SSE,157,20.0,28.0,81,0.00,,CLR,0.00,VWS V13.01,2013-11-04 14:28:00,
2013-11-04 09:33:00,41.1,35.7,30.50,SE,139,19.0,23.0,81,0.00,,CLR,0.00,VWS V13.01,2013-11-04 14:33:00,
2013-11-04 09:38:00,40.9,35.5,30.50,SSE,154,21.0,25.0,81,0.00,,CLR,0.00,VWS V13.01,2013-11-04 14:38:00,
2013-11-04 09:43:00,40.9,36.1,30.50,SSE,153,21.0,25.0,83,0.00,,CLR,0.00,VWS V13.01,2013-11-04 14:43:00,
2013-11-04 09:48:00,41.1,36.3,30.51,SSE,157,16.0,23.0,83,0.00,,CLR,0.00,VWS V13.01,2013-11-04 14:48:00,
2013-11-04 09:53:00,41.3,35.9,30.51,SSE,164,16.0,24.0,81,0.00,,CLR,0.00,VWS V13.01,2013-11-04 14:53:00,
2013-11-04 09:58:00,41.2,35.8,30.50,SE,139,18.0,24.0,81,0.00,,CLR,0.00,VWS V13.01,2013-11-04 14:58:00,
2013-11-04 10:03:00,41.2,35.5,30.50,SE,140,20.0,24.0,80,0.00,,CLR,0.00,VWS V13.01,2013-11-04 15:03:00,
2013-11-04 10:08:00,41.4,36.6,30.50,SE,142,19.0,22.0,83,0.00,,CLR,0.00,VWS V13.01,2013-11-04 15:08:00,
2013-11-04 10:13:00,41.3,35.9,30.50,SE,146,15.0,24.0,81,0.00,,CLR,0.00,VWS V13.01,2013-11-04 15:13:00,
2013-11-04 10:18:00,41.4,35.7,30.49,SE,142,20.0,25.0,80,0.00,,CLR,0.00,VWS V13.01,2013-11-04 15:18:00,
2013-11-04 10:23:00,41.5,36.1,30.49,SE,143,15.0,25.0,81,0.00,,CLR,0.00,VWS V13.01,2013-11-04 15:23:00,
2013-11-04 10:28:00,41.6,35.9,30.49,SSE,148,17.0,27.0,80,0.00,,CLR,0.00,VWS V13.01,2013-11-04 15:28:00,
2013-11-04 10:33:00,41.7,36.3,30.49,SE,138,23.0,23.0,81,0.00,,CLR,0.00,VWS V13.01,2013-11-04 15:33:00,
2013-11-04 10:38:00,41.8,36.1,30.49,SSE,150,21.0,25.0,80,0.00,,CLR,0.00,VWS V13.01,2013-11-04 15:38:00,
2013-11-04 10:43:00,41.9,35.9,30.49,SSE,150,23.0,25.0,79,0.00,,CLR,0.00,VWS V13.01,2013-11-04 15:43:00,
2013-11-04 10:48:00,42.0,36.3,30.49,SE,126,21.0,24.0,80,0.00,,CLR,0.00,VWS V13.01,2013-11-04 15:48:00,
2013-11-04 10:53:00,42.0,35.3,30.49,SSE,151,20.0,23.0,77,0.00,,CLR,0.00,VWS V13.01,2013-11-04 15:53:00,
2013-11-04 10:58:00,42.0,35.7,30.49,SE,142,19.0,23.0,78,0.00,,CLR,0.00,VWS V13.01,2013-11-04 15:58:00,
2013-11-04 11:03:00,42.0,35.3,30.49,SSE,153,19.0,22.0,77,0.00,,CLR,0.00,VWS V13.01,2013-11-04 16:03:00,
2013-11-04 11:08:00,42.1,35.4,30.50,SE,145,19.0,23.0,77,0.00,,CLR,0.00,VWS V13.01,2013-11-04 16:08:00,
2013-11-04 11:13:00,42.1,35.8,30.50,SSE,150,18.0,23.0,78,0.00,,CLR,0.00,VWS V13.01,2013-11-04 16:13:00,
2013-11-04 11:18:00,42.2,35.5,30.49,SSE,150,21.0,22.0,77,0.00,,CLR,0.00,VWS V13.01,2013-11-04 16:18:00,
2013-11-04 11:23:00,42.4,36.0,30.49,SE,146,15.0,21.0,78,0.00,,CLR,0.00,VWS V13.01,2013-11-04 16:23:00,
2013-11-04 11:28:00,42.4,35.0,30.49,SSE,163,15.0,20.0,75,0.00,,CLR,0.00,VWS V13.01,2013-11-04 16:28:00,
2013-11-04 11:33:00,42.3,35.3,30.49,SSE,148,17.0,23.0,76,0.00,,CLR,0.00,VWS V13.01,2013-11-04 16:33:00,
2013-11-04 11:39:00,42.4,34.7,30.48,SSE,149,20.0,23.0,74,0.00,,CLR,0.00,VWS V13.01,2013-11-04 16:39:00,
2013-11-04 11:44:00,42.5,34.8,30.48,SSE,147,17.0,22.0,74,0.00,,CLR,0.00,VWS V13.01,2013-11-04 16:44:00,
2013-11-04 11:49:00,42.7,35.3,30.48,SSE,153,18.0,22.0,75,0.00,,CLR,0.00,VWS V13.01,2013-11-04 16:49:00,
2013-11-04 11:54:00,42.8,35.4,30.48,SE,142,18.0,21.0,75,0.00,,CLR,0.00,VWS V13.01,2013-11-04 16:54:00,
2013-11-04 11:59:00,42.9,34.5,30.47,SSE,153,18.0,22.0,72,0.00,,CLR,0.00,VWS V13.01,2013-11-04 16:59:00,
2013-11-04 12:04:00,42.9,34.2,30.47,SSE,155,14.0,23.0,71,0.00,,CLR,0.00,VWS V13.01,2013-11-04 17:04:00,
2013-11-04 12:09:00,43.1,35.4,30.47,SE,138,15.0,20.0,74,0.00,,CLR,0.00,VWS V13.01,2013-11-04 17:09:00,
2013-11-04 12:14:00,43.1,35.0,30.47,SE,145,18.0,22.0,73,0.00,,CLR,0.00,VWS V13.01,2013-11-04 17:14:00,
2013-11-04 12:19:00,43.1,35.0,30.46,SSE,150,20.0,22.0,73,0.00,,CLR,0.00,VWS V13.01,2013-11-04 17:19:00,
2013-11-04 12:24:00,43.1,35.0,30.46,SE,142,17.0,22.0,73,0.00,,CLR,0.00,VWS V13.01,2013-11-04 17:24:00,
2013-11-04 12:29:00,43.2,35.8,30.45,SE,131,18.0,21.0,75,0.00,,CLR,0.00,VWS V13.01,2013-11-04 17:29:00,
2013-11-04 12:34:00,43.3,34.5,30.44,SE,138,20.0,24.0,71,0.00,,CLR,0.00,VWS V13.01,2013-11-04 17:34:00,
2013-11-04 12:39:00,43.6,36.2,30.44,SE,137,23.0,23.0,75,0.00,,CLR,0.00,VWS V13.01,2013-11-04 17:39:00,
2013-11-04 12:44:00,43.9,36.2,30.43,SE,136,12.0,22.0,74,0.00,,CLR,0.00,VWS V13.01,2013-11-04 17:44:00,
2013-11-04 12:49:00,44.1,36.4,30.43,SE,136,16.0,22.0,74,0.00,,CLR,0.00,VWS V13.01,2013-11-04 17:49:00,
2013-11-04 12:54:00,44.1,35.7,30.43,SE,139,17.0,22.0,72,0.00,,CLR,0.00,VWS V13.01,2013-11-04 17:54:00,
2013-11-04 12:59:00,44.0,36.3,30.43,SE,140,20.0,22.0,74,0.00,,CLR,0.00,VWS V13.01,2013-11-04 17:59:00,
2013-11-04 13:04:00,44.1,36.4,30.42,ESE,123,17.0,22.0,74,0.00,,CLR,0.00,VWS V13.01,2013-11-04 18:04:00,
2013-11-04 13:09:00,44.2,36.1,30.42,SE,145,16.0,23.0,73,0.00,,CLR,0.00,VWS V13.01,2013-11-04 18:09:00,
2013-11-04 13:14:00,44.3,35.9,30.41,ESE,114,17.0,23.0,72,0.00,,CLR,0.00,VWS V13.01,2013-11-04 18:14:00,
2013-11-04 13:19:00,44.5,35.7,30.42,SE,133,20.0,24.0,71,0.00,,CLR,0.00,VWS V13.01,2013-11-04 18:19:00,
2013-11-04 13:24:00,44.7,36.2,30.41,SE,142,15.0,22.0,72,0.00,,CLR,0.00,VWS V13.01,2013-11-04 18:24:00,
2013-11-04 13:29:00,44.6,35.1,30.41,SE,131,17.0,22.0,69,0.00,,CLR,0.00,VWS V13.01,2013-11-04 18:29:00,
2013-11-04 13:34:00,44.7,36.6,30.41,SE,132,15.0,21.0,73,0.00,,CLR,0.00,VWS V13.01,2013-11-04 18:34:00,
2013-11-04 13:39:00,44.6,36.2,30.41,SSE,155,14.0,19.0,72,0.00,,CLR,0.00,VWS V13.01,2013-11-04 18:39:00,
2013-11-04 13:44:00,44.6,36.2,30.41,SE,138,13.0,20.0,72,0.00,,CLR,0.00,VWS V13.01,2013-11-04 18:44:00,
2013-11-04 13:49:00,44.8,36.0,30.41,SE,144,19.0,22.0,71,0.00,,CLR,0.00,VWS V13.01,2013-11-04 18:49:00,
2013-11-04 13:54:00,45.0,35.8,30.41,SE,144,12.0,22.0,70,0.00,,CLR,0.00,VWS V13.01,2013-11-04 18:54:00,
2013-11-04 13:59:00,44.9,35.0,30.41,SSE,154,13.0,21.0,68,0.00,,CLR,0.00,VWS V13.01,2013-11-04 18:59:00,
2013-11-04 14:04:00,44.8,36.0,30.42,SSE,155,14.0,19.0,71,0.00,,CLR,0.00,VWS V13.01,2013-11-04 19:04:00,
2013-11-04 14:09:00,44.9,35.4,30.41,SE,143,16.0,20.0,69,0.00,,CLR,0.00,VWS V13.01,2013-11-04 19:09:00,
2013-11-04 14:14:00,44.9,36.1,30.41,SE,146,12.0,21.0,71,0.00,,CLR,0.00,VWS V13.01,2013-11-04 19:14:00,
2013-11-04 14:19:00,45.0,36.2,30.41,SE,146,15.0,19.0,71,0.00,,CLR,0.00,VWS V13.01,2013-11-04 19:19:00,
2013-11-04 14:24:00,45.0,36.5,30.40,SSE,158,16.0,19.0,72,0.00,,CLR,0.00,VWS V13.01,2013-11-04 19:24:00,
2013-11-04 14:29:00,45.0,36.2,30.40,SE,141,13.0,19.0,71,0.00,,CLR,0.00,VWS V13.01,2013-11-04 19:29:00,
2013-11-04 14:34:00,45.0,36.5,30.40,SSE,150,15.0,20.0,72,0.00,,CLR,0.00,VWS V13.01,2013-11-04 19:34:00,
2013-11-04 14:39:00,45.2,36.7,30.40,SE,139,17.0,21.0,72,0.00,,CLR,0.00,VWS V13.01,2013-11-04 19:39:00,
2013-11-04 14:44:00,45.2,36.7,30.40,SE,137,20.0,20.0,72,0.00,,CLR,0.00,VWS V13.01,2013-11-04 19:44:00,
2013-11-04 14:49:00,45.1,35.9,30.40,SE,138,21.0,21.0,70,0.00,,CLR,0.00,VWS V13.01,2013-11-04 19:49:00,
2013-11-04 14:54:00,45.0,36.2,30.39,SE,138,19.0,21.0,71,0.00,,CLR,0.00,VWS V13.01,2013-11-04 19:54:00,
2013-11-04 14:59:00,44.8,36.0,30.39,SE,133,14.0,22.0,71,0.00,,CLR,0.00,VWS V13.01,2013-11-04 19:59:00,
2013-11-04 15:04:00,44.8,36.0,30.39,SE,146,16.0,20.0,71,0.00,,CLR,0.00,VWS V13.01,2013-11-04 20:04:00,
2013-11-04 15:09:00,44.8,36.0,30.39,SE,146,19.0,21.0,71,0.00,,CLR,0.00,VWS V13.01,2013-11-04 20:09:00,
2013-11-04 15:14:00,44.7,35.5,30.38,SE,134,15.0,22.0,70,0.00,,CLR,0.00,VWS V13.01,2013-11-04 20:14:00,
2013-11-04 15:19:00,44.6,35.4,30.38,SE,139,20.0,22.0,70,0.00,,CLR,0.00,VWS V13.01,2013-11-04 20:19:00,
2013-11-04 15:25:00,44.6,35.8,30.38,SE,126,20.0,22.0,71,0.00,,CLR,0.00,VWS V13.01,2013-11-04 20:25:00,
2013-11-04 15:30:00,44.6,36.8,30.38,SE,136,15.0,21.0,74,0.00,,CLR,0.00,VWS V13.01,2013-11-04 20:30:00,
2013-11-04 15:35:00,44.5,36.0,30.38,SE,130,17.0,21.0,72,0.00,,CLR,0.00,VWS V13.01,2013-11-04 20:35:00,
2013-11-04 15:40:00,44.5,36.4,30.37,SE,130,16.0,21.0,73,0.00,,CLR,0.00,VWS V13.01,2013-11-04 20:40:00,
2013-11-04 15:45:00,44.5,35.3,30.37,SE,141,20.0,24.0,70,0.00,,CLR,0.00,VWS V13.01,2013-11-04 20:45:00,
2013-11-04 15:50:00,44.6,36.2,30.37,SE,131,18.0,22.0,72,0.00,,CLR,0.00,VWS V13.01,2013-11-04 20:50:00,
2013-11-04 15:55:00,44.6,35.1,30.37,SE,142,16.0,22.0,69,0.00,,CLR,0.00,VWS V13.01,2013-11-04 20:55:00,
2013-11-04 16:00:00,44.7,36.9,30.36,SE,126,21.0,21.0,74,0.00,,CLR,0.00,VWS V13.01,2013-11-04 21:00:00,
2013-11-04 16:05:00,44.9,36.4,30.36,SE,129,16.0,22.0,72,0.00,,CLR,0.00,VWS V13.01,2013-11-04 21:05:00,
2013-11-04 16:10:00,44.9,35.7,30.37,SE,142,16.0,22.0,70,0.00,,CLR,0.00,VWS V13.01,2013-11-04 21:10:00,
2013-11-04 16:15:00,44.7,35.9,30.37,SE,135,15.0,21.0,71,0.00,,CLR,0.00,VWS V13.01,2013-11-04 21:15:00,
2013-11-04 16:20:00,44.6,35.8,30.37,SE,145,16.0,21.0,71,0.00,,CLR,0.00,VWS V13.01,2013-11-04 21:20:00,
2013-11-04 16:25:00,44.6,36.5,30.37,SE,136,15.0,18.0,73,0.00,,CLR,0.00,VWS V13.01,2013-11-04 21:25:00,
2013-11-04 16:30:00,44.5,36.4,30.37,SE,135,16.0,19.0,73,0.00,,CLR,0.00,VWS V13.01,2013-11-04 21:30:00,
2013-11-04 16:35:00,44.5,36.7,30.37,SE,141,18.0,20.0,74,0.00,,CLR,0.00,VWS V13.01,2013-11-04 21:35:00,
2013-11-04 16:40:00,44.5,36.0,30.37,SE,137,17.0,20.0,72,0.00,,CLR,0.00,VWS V13.01,2013-11-04 21:40:00,
2013-11-04 16:45:00,44.5,36.4,30.37,SE,139,17.0,19.0,73,0.00,,CLR,0.00,VWS V13.01,2013-11-04 21:45:00,
2013-11-04 16:50:00,44.5,36.0,30.37,SE,137,18.0,21.0,72,0.00,,CLR,0.00,VWS V13.01,2013-11-04 21:50:00,
2013-11-04 16:55:00,44.4,36.0,30.37,SE,145,15.0,20.0,72,0.00,,CLR,0.00,VWS V13.01,2013-11-04 21:55:00,
2013-11-04 17:00:00,44.3,36.2,30.37,SE,130,14.0,20.0,73,0.00,,CLR,0.00,VWS V13.01,2013-11-04 22:00:00,
2013-11-04 17:05:00,44.3,36.5,30.36,SE,125,18.0,19.0,74,0.00,,CLR,0.00,VWS V13.01,2013-11-04 22:05:00,
2013-11-04 17:10:00,44.2,36.5,30.35,SE,137,17.0,22.0,74,0.00,,CLR,0.00,VWS V13.01,2013-11-04 22:10:00,
2013-11-04 17:15:00,44.1,36.7,30.35,SE,132,17.0,21.0,75,0.00,,CLR,0.00,VWS V13.01,2013-11-04 22:15:00,
2013-11-04 17:20:00,44.0,36.3,30.35,SE,129,17.0,22.0,74,0.00,,CLR,0.00,VWS V13.01,2013-11-04 22:20:00,
2013-11-04 17:25:00,44.0,36.3,30.35,SE,132,20.0,22.0,74,0.00,,CLR,0.00,VWS V13.01,2013-11-04 22:25:00,
2013-11-04 17:30:00,43.9,36.2,30.36,SE,134,17.0,22.0,74,0.00,,CLR,0.00,VWS V13.01,2013-11-04 22:30:00,
2013-11-04 17:35:00,43.9,36.5,30.36,ESE,113,15.0,22.0,75,0.00,,CLR,0.00,VWS V13.01,2013-11-04 22:35:00,
2013-11-04 17:40:00,43.8,36.1,30.36,SE,136,18.0,22.0,74,0.00,,CLR,0.00,VWS V13.01,2013-11-04 22:40:00,
2013-11-04 17:45:00,43.8,36.7,30.36,SE,136,15.0,21.0,76,0.00,,CLR,0.00,VWS V13.01,2013-11-04 22:45:00,
2013-11-04 17:50:00,43.8,36.1,30.36,SE,138,18.0,23.0,74,0.00,,CLR,0.00,VWS V13.01,2013-11-04 22:50:00,
2013-11-04 17:55:00,43.8,37.1,30.36,SE,134,17.0,21.0,77,0.00,,CLR,0.00,VWS V13.01,2013-11-04 22:55:00,
2013-11-04 18:00:00,43.7,36.6,30.36,SE,130,18.0,23.0,76,0.00,,CLR,0.00,VWS V13.01,2013-11-04 23:00:00,
2013-11-04 18:05:00,43.7,36.3,30.36,SE,130,13.0,23.0,75,0.00,,CLR,0.00,VWS V13.01,2013-11-04 23:05:00,
2013-11-04 18:10:00,43.6,35.9,30.35,SE,140,18.0,23.0,74,0.00,,CLR,0.00,VWS V13.01,2013-11-04 23:10:00,
2013-11-04 18:15:00,43.6,36.5,30.36,SE,133,15.0,22.0,76,0.00,,CLR,0.00,VWS V13.01,2013-11-04 23:15:00,
2013-11-04 18:20:00,43.5,36.8,30.35,SE,132,22.0,22.0,77,0.00,,CLR,0.00,VWS V13.01,2013-11-04 23:20:00,
2013-11-04 18:25:00,43.5,35.8,30.35,SE,145,21.0,24.0,74,0.00,,CLR,0.00,VWS V13.01,2013-11-04 23:25:00,
2013-11-04 18:30:00,43.3,35.2,30.34,SE,131,17.0,24.0,73,0.00,,CLR,0.00,VWS V13.01,2013-11-04 23:30:00,
2013-11-04 18:35:00,43.3,36.3,30.34,SE,134,24.0,24.0,76,0.00,,CLR,0.00,VWS V13.01,2013-11-04 23:35:00,
2013-11-04 18:40:00,43.2,35.6,30.34,SE,127,14.0,25.0,74,0.00,,CLR,0.00,VWS V13.01,2013-11-04 23:40:00,
2013-11-04 18:45:00,43.3,36.9,30.34,SE,133,15.0,22.0,78,0.00,,CLR,0.00,VWS V13.01,2013-11-04 23:45:00,
2013-11-04 18:50:00,43.2,35.5,30.34,SE,126,22.0,27.0,74,0.00,,CLR,0.00,VWS V13.01,2013-11-04 23:50:00,
2013-11-04 18:55:00,43.2,35.8,30.33,SE,131,22.0,26.0,75,0.00,,CLR,0.00,VWS V13.01,2013-11-04 23:55:00,
2013-11-04 19:00:00,43.2,36.2,30.33,SE,130,21.0,25.0,76,0.00,,CLR,0.00,VWS V13.01,2013-11-05 00:00:00,
2013-11-04 19:05:00,43.2,36.2,30.33,SE,128,23.0,26.0,76,0.00,,CLR,0.00,VWS V13.01,2013-11-05 00:05:00,
2013-11-04 19:10:00,43.2,36.2,30.33,ESE,117,25.0,26.0,76,0.00,,CLR,0.00,VWS V13.01,2013-11-05 00:10:00,
2013-11-04 19:15:00,43.2,36.5,30.32,SE,143,21.0,25.0,77,0.00,,CLR,0.00,VWS V13.01,2013-11-05 00:15:00,
2013-11-04 19:20:00,43.3,36.3,30.32,SE,139,23.0,26.0,76,0.00,,CLR,0.00,VWS V13.01,2013-11-05 00:20:00,
2013-11-04 19:25:00,43.3,36.3,30.32,SE,134,20.0,26.0,76,0.00,,CLR,0.00,VWS V13.01,2013-11-05 00:25:00,
2013-11-04 19:30:00,43.3,35.9,30.33,SE,136,21.0,25.0,75,0.00,,CLR,0.00,VWS V13.01,2013-11-05 00:30:00,
2013-11-04 19:35:00,43.3,35.2,30.33,SE,142,21.0,26.0,73,0.00,,CLR,0.00,VWS V13.01,2013-11-05 00:35:00,
2013-11-04 19:40:00,43.3,35.9,30.33,SE,144,19.0,25.0,75,0.00,,CLR,0.00,VWS V13.01,2013-11-05 00:40:00,
2013-11-04 19:46:00,43.3,35.6,30.33,SE,132,14.0,25.0,74,0.00,,CLR,0.00,VWS V13.01,2013-11-05 00:46:00,
2013-11-04 19:51:00,43.2,35.5,30.33,SE,142,23.0,27.0,74,0.00,,CLR,0.00,VWS V13.01,2013-11-05 00:51:00,
2013-11-04 19:56:00,43.2,35.8,30.33,SE,134,21.0,27.0,75,0.00,,CLR,0.00,VWS V13.01,2013-11-05 00:56:00,
2013-11-04 20:01:00,43.3,35.9,30.33,SE,139,15.0,26.0,75,0.00,,CLR,0.00,VWS V13.01,2013-11-05 01:01:00,
2013-11-04 20:06:00,43.2,35.5,30.34,SE,143,17.0,24.0,74,0.00,,CLR,0.00,VWS V13.01,2013-11-05 01:06:00,
2013-11-04 20:11:00,43.3,36.3,30.34,SE,142,19.0,22.0,76,0.00,,CLR,0.00,VWS V13.01,2013-11-05 01:11:00,
2013-11-04 20:16:00,43.2,35.5,30.33,SSE,155,19.0,26.0,74,0.00,,CLR,0.00,VWS V13.01,2013-11-05 01:16:00,
2013-11-04 20:21:00,43.2,36.2,30.33,SE,137,20.0,23.0,76,0.00,,CLR,0.00,VWS V13.01,2013-11-05 01:21:00,
2013-11-04 20:26:00,43.2,36.5,30.33,SE,136,16.0,24.0,77,0.00,,CLR,0.00,VWS V13.01,2013-11-05 01:26:00,
2013-11-04 20:31:00,43.2,36.8,30.33,SSE,150,17.0,24.0,78,0.00,,CLR,0.00,VWS V13.01,2013-11-05 01:31:00,
2013-11-04 20:36:00,43.1,36.1,30.33,SSE,158,16.0,23.0,76,0.00,,CLR,0.00,VWS V13.01,2013-11-05 01:36:00,
2013-11-04 20:41:00,43.1,35.7,30.33,SSE,160,21.0,23.0,75,0.00,,CLR,0.00,VWS V13.01,2013-11-05 01:41:00,
2013-11-04 20:46:00,43.2,36.2,30.33,SSE,163,19.0,21.0,76,0.00,,CLR,0.00,VWS V13.01,2013-11-05 01:46:00,
2013-11-04 20:51:00,43.2,35.8,30.33,SSE,157,16.0,22.0,75,0.00,,CLR,0.00,VWS V13.01,2013-11-05 01:51:00,
2013-11-04 20:56:00,43.3,36.6,30.33,SSE,160,13.0,20.0,77,0.00,,CLR,0.00,VWS V13.01,2013-11-05 01:56:00,
2013-11-04 21:01:00,43.3,35.6,30.33,SE,146,15.0,24.0,74,0.00,,CLR,0.00,VWS V13.01,2013-11-05 02:01:00,
2013-11-04 21:06:00,43.3,36.6,30.33,SSE,165,15.0,22.0,77,0.00,,CLR,0.00,VWS V13.01,2013-11-05 02:06:00,
2013-11-04 21:11:00,43.3,35.9,30.33,SSE,148,16.0,22.0,75,0.00,,CLR,0.00,VWS V13.01,2013-11-05 02:11:00,
2013-11-04 21:16:00,43.3,37.2,30.33,South,171,13.0,20.0,79,0.00,,CLR,0.00,VWS V13.01,2013-11-05 02:16:00,
2013-11-04 21:21:00,43.3,36.3,30.33,SSE,163,17.0,21.0,76,0.00,,CLR,0.00,VWS V13.01,2013-11-05 02:21:00,
2013-11-04 21:26:00,43.3,35.9,30.33,SSE,149,12.0,21.0,75,0.00,,CLR,0.00,VWS V13.01,2013-11-05 02:26:00,
2013-11-04 21:31:00,43.2,35.8,30.33,South,171,16.0,21.0,75,0.00,,CLR,0.00,VWS V13.01,2013-11-05 02:31:00,
2013-11-04 21:36:00,43.2,36.5,30.33,SSE,148,19.0,21.0,77,0.00,,CLR,0.00,VWS V13.01,2013-11-05 02:36:00,
2013-11-04 21:41:00,43.1,36.4,30.33,SSE,159,18.0,21.0,77,0.00,,CLR,0.00,VWS V13.01,2013-11-05 02:41:00,
2013-11-04 21:46:00,43.1,36.7,30.33,South,174,17.0,21.0,78,0.00,,CLR,0.00,VWS V13.01,2013-11-05 02:46:00,
2013-11-04 21:51:00,43.1,35.7,30.33,SSE,163,12.0,19.0,75,0.00,,CLR,0.00,VWS V13.01,2013-11-05 02:51:00,
2013-11-04 21:56:00,43.1,36.1,30.33,SSE,151,14.0,19.0,76,0.00,,CLR,0.00,VWS V13.01,2013-11-05 02:56:00,
2013-11-04 22:01:00,43.1,36.1,30.32,South,176,18.0,20.0,76,0.00,,BKN120,0.00,VWS V13.01,2013-11-05 03:01:00,
2013-11-04 22:06:00,43.1,36.7,30.32,South,172,16.0,21.0,78,0.00,,BKN120,0.00,VWS V13.01,2013-11-05 03:06:00,
2013-11-04 22:11:00,43.1,36.4,30.32,SSE,163,11.0,18.0,77,0.00,,BKN120,0.00,VWS V13.01,2013-11-05 03:11:00,
2013-11-04 22:16:00,43.1,36.7,30.32,SSE,156,14.0,17.0,78,0.00,,BKN120,0.00,VWS V13.01,2013-11-05 03:16:00,
2013-11-04 22:21:00,43.2,36.8,30.31,SSE,155,12.0,18.0,78,0.00,,BKN120,0.00,VWS V13.01,2013-11-05 03:21:00,
2013-11-04 22:26:00,43.2,36.5,30.32,SE,142,13.0,18.0,77,0.00,,BKN120,0.00,VWS V13.01,2013-11-05 03:26:00,
2013-11-04 22:31:00,43.2,36.5,30.32,SSE,153,16.0,18.0,77,0.00,,BKN120,0.00,VWS V13.01,2013-11-05 03:31:00,
2013-11-04 22:36:00,43.2,37.1,30.32,SSE,168,16.0,17.0,79,0.00,,BKN120,0.00,VWS V13.01,2013-11-05 03:36:00,
2013-11-04 22:41:00,43.3,37.6,30.31,SSE,166,12.0,15.0,80,0.00,,BKN120,0.00,VWS V13.01,2013-11-05 03:41:00,
2013-11-04 22:46:00,43.3,37.2,30.31,South,179,12.0,16.0,79,0.00,,BKN120,0.00,VWS V13.01,2013-11-05 03:46:00,
2013-11-04 22:51:00,43.3,36.6,30.31,SSE,167,11.0,16.0,77,0.00,,BKN120,0.00,VWS V13.01,2013-11-05 03:51:00,
2013-11-04 22:56:00,43.4,37.0,30.31,SSE,164,13.0,17.0,78,0.00,,BKN120,0.00,VWS V13.01,2013-11-05 03:56:00,
2013-11-04 23:01:00,43.4,37.3,30.31,SSE,163,12.0,15.0,79,0.00,,OVC100,0.00,VWS V13.01,2013-11-05 04:01:00,
2013-11-04 23:06:00,43.5,37.8,30.31,South,182,12.0,15.0,80,0.00,,OVC100,0.00,VWS V13.01,2013-11-05 04:06:00,
2013-11-04 23:11:00,43.5,37.4,30.31,South,178,11.0,16.0,79,0.00,,OVC100,0.00,VWS V13.01,2013-11-05 04:11:00,
2013-11-04 23:16:00,43.6,38.2,30.31,South,174,11.0,14.0,81,0.00,,OVC100,0.00,VWS V13.01,2013-11-05 04:16:00,
2013-11-04 23:21:00,43.6,37.5,30.31,South,184,13.0,13.0,79,0.00,,OVC100,0.00,VWS V13.01,2013-11-05 04:21:00,
2013-11-04 23:26:00,43.7,38.3,30.30,South,172,12.0,13.0,81,0.00,,OVC100,0.00,VWS V13.01,2013-11-05 04:26:00,
2013-11-04 23:31:00,43.8,37.4,30.31,South,173,12.0,15.0,78,0.00,,OVC100,0.00,VWS V13.01,2013-11-05 04:31:00,
2013-11-04 23:36:00,43.8,37.7,30.30,South,175,9.0,13.0,79,0.00,,OVC100,0.00,VWS V13.01,2013-11-05 04:36:00,
2013-11-04 23:41:00,43.9,38.1,30.30,South,176,11.0,14.0,80,0.00,,OVC100,0.00,VWS V13.01,2013-11-05 04:41:00,
2013-11-04 23:46:00,44.0,38.2,30.30,South,186,13.0,15.0,80,0.00,,OVC100,0.00,VWS V13.01,2013-11-05 04:46:00,
2013-11-04 23:51:00,44.1,38.0,30.30,South,176,13.0,15.0,79,0.00,,OVC100,0.00,VWS V13.01,2013-11-05 04:51:00,
2013-11-04 23:56:00,44.2,39.1,30.30,SSW,192,7.0,15.0,82,0.00,,OVC100,0.00,VWS V13.01,2013-11-05 04:56:00,